When you browse on this site, cookies collect data to enhance your experience and personalize the content and advertising you see.
Visit our Privacy Policy to learn more. By continuing to use the site, you agree to this use of cookies and data.
  • In Sweden
  • List of Countries
  • For 7 days
  • Water Temperature
  • Weather Map
  • Weather Widgets
  • user-avatar
    Login

    Hourly Weather Malanje

    Today, 18 September, Wednesday

    Time Temperature Precipitation Wind Pressure Humidity
    00:00 +24°C° 0 mm 3 mps 665 mmHg 71%
    01:00 +21°C° 0 mm 3 mps 664 mmHg 83%
    02:00 +21°C° 0 mm 3 mps 665 mmHg 84%
    03:00 +20°C° 0 mm 2 mps 665 mmHg 85%
    04:00 +20°C° 0 mm 2 mps 665 mmHg 86%
    05:00 +20°C° 0 mm 2 mps 665 mmHg 85%
    06:00 +20°C° 0 mm 2 mps 665 mmHg 83%
    07:00 +21°C° 0 mm 2 mps 666 mmHg 83%
    08:00 +24°C° 0 mm 2 mps 666 mmHg 74%
    09:00 +26°C° 0 mm 2 mps 667 mmHg 65%
    10:00 +28°C° 0 mm 1 mps 667 mmHg 56%
    11:00 +30°C° 0 mm 1 mps 667 mmHg 47%
    12:00 +33°C° 0 mm 1 mps 666 mmHg 38%
    13:00 +35°C° 0 mm 1 mps 666 mmHg 29%
    14:00 +34°C° 0 mm 1 mps 665 mmHg 31%
    15:00 +33°C° 0 mm 1 mps 664 mmHg 32%
    16:00 +32°C° 0 mm 1 mps 664 mmHg 33%
    17:00 +31°C° 0 mm 2 mps 664 mmHg 37%
    18:00 +29°C° 0 mm 2 mps 664 mmHg 41%
    19:00 +27°C° 0 mm 2 mps 664 mmHg 45%
    20:00 +26°C° 0 mm 2 mps 664 mmHg 52%
    21:00 +25°C° 0 mm 3 mps 665 mmHg 59%
    22:00 +24°C° 0 mm 3 mps 665 mmHg 66%
    23:00 +24°C° 0 mm 3 mps 665 mmHg 70%

    Tomorrow, 19 September, Thursday

    Time Temperature Precipitation Wind Pressure Humidity
    00:00 +22°C° 0 mm 3 mps 665 mmHg 74%
    01:00 +21°C° 0 mm 2 mps 664 mmHg 79%
    02:00 +20°C° 0 mm 2 mps 664 mmHg 82%
    03:00 +20°C° 0 mm 2 mps 664 mmHg 84%
    04:00 +19°C° 0 mm 2 mps 664 mmHg 87%
    05:00 +20°C° 0 mm 2 mps 665 mmHg 85%
    06:00 +20°C° 0 mm 2 mps 665 mmHg 83%
    07:00 +20°C° 0 mm 2 mps 665 mmHg 81%
    08:00 +26°C° 0 mm 1 mps 666 mmHg 66%
    09:00 +30°C° 0 mm 1 mps 667 mmHg 52%
    10:00 +32°C° 0 mm 0 mps 668 mmHg 37%
    11:00 +35°C° 0 mm 1 mps 667 mmHg 33%
    12:00 +36°C° 0 mm 1 mps 667 mmHg 30%
    13:00 +37°C° 0 mm 1 mps 666 mmHg 27%
    14:00 +35°C° 0.1 mm 1 mps 665 mmHg 31%
    15:00 +34°C° 0.1 mm 2 mps 665 mmHg 35%
    16:00 +31°C° 0.1 mm 2 mps 664 mmHg 38%
    17:00 +30°C° 0 mm 2 mps 664 mmHg 42%
    18:00 +29°C° 0 mm 2 mps 664 mmHg 46%
    19:00 +27°C° 0 mm 2 mps 664 mmHg 49%
    20:00 +26°C° 0.1 mm 3 mps 665 mmHg 54%
    21:00 +25°C° 0.1 mm 3 mps 665 mmHg 59%
    22:00 +25°C° 0.1 mm 3 mps 665 mmHg 63%
    23:00 +22°C° 0 mm 4 mps 665 mmHg 69%

    Day after tomorrow, 20 September, Friday

    Time Temperature Precipitation Wind Pressure Humidity
    00:00 +21°C° 0 mm 4 mps 665 mmHg 75%
    01:00 +20°C° 0 mm 4 mps 665 mmHg 81%
    02:00 +20°C° 0 mm 4 mps 665 mmHg 80%
    03:00 +20°C° 0 mm 4 mps 665 mmHg 79%
    04:00 +20°C° 0 mm 4 mps 665 mmHg 78%
    05:00 +20°C° 0 mm 4 mps 665 mmHg 78%
    06:00 +20°C° 0 mm 3 mps 666 mmHg 77%
    07:00 +20°C° 0 mm 3 mps 666 mmHg 76%
    08:00 +24°C° 0 mm 3 mps 666 mmHg 65%
    09:00 +27°C° 0 mm 3 mps 667 mmHg 53%
    10:00 +30°C° 0 mm 2 mps 668 mmHg 41%
    11:00 +32°C° 0 mm 2 mps 667 mmHg 36%
    12:00 +35°C° 0 mm 2 mps 667 mmHg 31%
    13:00 +36°C° 0 mm 1 mps 666 mmHg 27%
    14:00 +36°C° 0 mm 2 mps 666 mmHg 28%
    15:00 +35°C° 0 mm 2 mps 665 mmHg 29%
    16:00 +34°C° 0 mm 2 mps 665 mmHg 30%
    17:00 +31°C° 0 mm 2 mps 664 mmHg 37%
    18:00 +29°C° 0 mm 2 mps 664 mmHg 43%
    19:00 +27°C° 0 mm 2 mps 664 mmHg 49%
    20:00 +26°C° 0 mm 2 mps 665 mmHg 50%
    21:00 +26°C° 0 mm 2 mps 665 mmHg 51%
    22:00 +25°C° 0 mm 2 mps 665 mmHg 52%
    23:00 +24°C° 0 mm 2 mps 665 mmHg 59%

    21 September, Saturday

    Time Temperature Precipitation Wind Pressure Humidity
    00:00 +22°C° 0 mm 3 mps 664 mmHg 66%
    01:00 +21°C° 0 mm 3 mps 664 mmHg 73%
    02:00 +20°C° 0 mm 3 mps 664 mmHg 76%
    03:00 +19°C° 0 mm 2 mps 664 mmHg 79%
    04:00 +19°C° 0 mm 2 mps 664 mmHg 82%
    05:00 +19°C° 0 mm 2 mps 664 mmHg 80%
    06:00 +19°C° 0 mm 3 mps 665 mmHg 79%
    07:00 +19°C° 0 mm 3 mps 665 mmHg 78%
    08:00 +24°C° 0 mm 3 mps 666 mmHg 65%
    09:00 +27°C° 0 mm 3 mps 666 mmHg 51%
    10:00 +30°C° 0 mm 3 mps 667 mmHg 38%
    11:00 +32°C° 0 mm 2 mps 666 mmHg 33%
    12:00 +35°C° 0 mm 2 mps 666 mmHg 29%
    13:00 +37°C° 0 mm 2 mps 666 mmHg 24%
    14:00 +36°C° 0 mm 2 mps 665 mmHg 26%
    15:00 +35°C° 0 mm 3 mps 664 mmHg 28%
    16:00 +34°C° 0 mm 3 mps 664 mmHg 30%
    17:00 +31°C° 0 mm 3 mps 664 mmHg 33%
    18:00 +30°C° 0 mm 2 mps 664 mmHg 36%
    19:00 +28°C° 0 mm 2 mps 664 mmHg 40%
    20:00 +27°C° 0 mm 2 mps 665 mmHg 40%
    21:00 +27°C° 0 mm 3 mps 665 mmHg 41%
    22:00 +26°C° 0 mm 3 mps 665 mmHg 42%
    23:00 +24°C° 0.1 mm 3 mps 665 mmHg 50%

    22 September, Sunday

    Time Temperature Precipitation Wind Pressure Humidity
    00:00 +22°C° 0.1 mm 3 mps 664 mmHg 57%
    01:00 +21°C° 0.1 mm 3 mps 664 mmHg 65%
    02:00 +20°C° 0 mm 3 mps 664 mmHg 69%
    03:00 +20°C° 0 mm 3 mps 664 mmHg 72%
    04:00 +19°C° 0 mm 2 mps 664 mmHg 76%
    05:00 +19°C° 0 mm 2 mps 664 mmHg 75%
    06:00 +19°C° 0 mm 2 mps 665 mmHg 74%
    07:00 +19°C° 0 mm 2 mps 665 mmHg 73%
    08:00 +24°C° 0 mm 2 mps 666 mmHg 59%
    09:00 +27°C° 0 mm 3 mps 666 mmHg 45%
    10:00 +30°C° 0 mm 3 mps 667 mmHg 31%
    11:00 +33°C° 0 mm 3 mps 667 mmHg 28%
    12:00 +35°C° 0 mm 3 mps 666 mmHg 25%
    13:00 +37°C° 0 mm 2 mps 666 mmHg 21%
    14:00 +36°C° 0 mm 3 mps 665 mmHg 22%
    15:00 +35°C° 0 mm 3 mps 664 mmHg 23%
    16:00 +35°C° 0 mm 3 mps 664 mmHg 23%
    17:00 +31°C° 0 mm 3 mps 664 mmHg 28%
    18:00 +29°C° 0 mm 3 mps 664 mmHg 33%
    19:00 +27°C° 0 mm 3 mps 664 mmHg 37%
    20:00 +26°C° 0 mm 2 mps 665 mmHg 40%
    21:00 +25°C° 0 mm 2 mps 665 mmHg 43%
    22:00 +24°C° 0 mm 2 mps 666 mmHg 46%
    23:00 +23°C° 0 mm 2 mps 665 mmHg 51%

    23 September, Monday

    Time Temperature Precipitation Wind Pressure Humidity
    00:00 +21°C° 0 mm 2 mps 665 mmHg 55%
    01:00 +20°C° 0 mm 2 mps 665 mmHg 60%
    02:00 +20°C° 0 mm 2 mps 665 mmHg 64%
    03:00 +19°C° 0 mm 2 mps 665 mmHg 69%
    04:00 +19°C° 0 mm 1 mps 665 mmHg 73%
    05:00 +19°C° 0 mm 2 mps 665 mmHg 73%
    06:00 +19°C° 0 mm 2 mps 665 mmHg 72%
    07:00 +19°C° 0 mm 2 mps 666 mmHg 72%
    08:00 +24°C° 0 mm 2 mps 666 mmHg 58%
    09:00 +27°C° 0 mm 3 mps 667 mmHg 44%
    10:00 +31°C° 0 mm 3 mps 668 mmHg 30%
    11:00 +33°C° 0 mm 3 mps 667 mmHg 27%
    12:00 +34°C° 0 mm 3 mps 666 mmHg 25%
    13:00 +35°C° 0 mm 3 mps 666 mmHg 22%
    14:00 +34°C° 0 mm 3 mps 665 mmHg 25%
    15:00 +33°C° 0 mm 3 mps 665 mmHg 27%
    16:00 +31°C° 0 mm 3 mps 664 mmHg 30%
    17:00 +30°C° 0 mm 3 mps 664 mmHg 34%
    18:00 +28°C° 0 mm 3 mps 664 mmHg 38%
    19:00 +26°C° 0 mm 2 mps 664 mmHg 42%
    20:00 +26°C° 0 mm 2 mps 665 mmHg 43%
    21:00 +25°C° 0 mm 2 mps 665 mmHg 43%
    22:00 +24°C° 0 mm 1 mps 666 mmHg 43%
    23:00 +23°C° 0 mm 1 mps 666 mmHg 47%
    Show more